Location: Newark
(52.1752°N, 10.4140°W)
Time: 22:06:42
(UTC+00:00)

N. Korean satellite - Pass Details

Date: 23 November 2019
Orbit: 455 x 507 km, 97.2° (Epoch: 13 December)

Event Time Altitude Azimuth Distance (km) Brightness Sun altitude
Rises 18:11:46 0° 188° (S) 2,580 10.6 -13.6°
Reaches altitude 10° 18:13:58 10° 198° (SSW) 1,708 9.8 -13.9°
Maximum altitude 18:17:20 34° 264° (W) 861 8.5 -14.4°
Drops below altitude 10° 18:20:46 10° 330° (NNW) 1,734 9.6 -14.9°
Sets 18:23:01 0° 340° (NNW) 2,627 10.4 -15.2°
